Location: Marion Hill
(40.7303°N, 80.2959°W)
Time: 07:56:02
(UTC+00:00)

Cosmos 1656 - Pass Details

Date: 29 October 2020
Orbit: 796 x 851 km, 71.1° (Epoch: 28 November)

Event Time Altitude Azimuth Distance (km) Brightness Sun altitude
Rises 23:17:26 0° 207° (SSW) 3,329 7.3 -11.3°
Reaches altitude 10° 23:19:51 10° 209° (SSW) 2,409 6.6 -11.8°
Maximum altitude 23:25:22 74° 294° (WNW) 864 3.9 -12.8°
Drops below altitude 10° 23:31:01 10° 20° (NNE) 2,461 5.9 -13.9°
Sets 23:33:29 0° 22° (NNE) 3,406 6.6 -14.4°
